TimePDT,TemperatureF,Dew PointF,Humidity,Sea Level PressureIn,VisibilityMPH,Wind Direction,Wind SpeedMPH,Gust SpeedMPH,PrecipitationIn,Events,Conditions,WindDirDegrees,DateUTC
12:53 AM,59.0,52.0,78,30.06,10.0,WSW,6.9,-,N/A,,Clear,240,2013-05-02 07:53:00
1:53 AM,59.0,53.1,81,30.06,9.0,Variable,3.5,-,N/A,,Clear,0,2013-05-02 08:53:00
2:53 AM,57.0,53.1,87,30.06,7.0,Calm,Calm,-,N/A,,Clear,0,2013-05-02 09:53:00
3:53 AM,54.0,50.0,86,30.05,6.0,Calm,Calm,-,N/A,,Clear,0,2013-05-02 10:53:00
4:53 AM,55.9,52.0,87,30.04,6.0,NNW,6.9,-,N/A,,Clear,340,2013-05-02 11:53:00
5:24 AM,75.2,-0.4,5,30.07,9.0,ENE,21.9,32.2,N/A,,Clear,60,2013-05-02 12:24:00
5:53 AM,75.9,-2.0,5,30.03,10.0,ENE,18.4,32.2,N/A,,Clear,60,2013-05-02 12:53:00
6:53 AM,75.9,-2.9,4,30.04,10.0,ENE,27.6,40.3,N/A,,Clear,70,2013-05-02 13:53:00
7:53 AM,75.9,3.9,6,30.06,10.0,NNE,18.4,36.8,N/A,,Clear,30,2013-05-02 14:53:00
8:53 AM,80.1,-0.9,4,30.07,10.0,ENE,20.7,29.9,N/A,,Clear,70,2013-05-02 15:53:00
9:05 AM,78.8,1.4,5,30.12,10.0,NNE,15.0,29.9,N/A,,Clear,30,2013-05-02 16:05:00
9:53 AM,82.9,-5.1,4,30.08,10.0,ENE,18.4,32.2,N/A,,Clear,60,2013-05-02 16:53:00
10:53 AM,86.0,-8.0,4,30.09,10.0,ENE,20.7,31.1,N/A,,Clear,60,2013-05-02 17:53:00
11:53 AM,89.1,-11.0,4,30.07,10.0,NE,19.6,32.2,N/A,,Clear,50,2013-05-02 18:53:00
12:53 PM,89.1,-11.9,4,30.07,10.0,ENE,16.1,31.1,N/A,,Clear,60,2013-05-02 19:53:00
1:53 PM,90.0,-11.0,4,30.04,10.0,ENE,17.3,28.8,N/A,,Clear,70,2013-05-02 20:53:00
2:53 PM,93.0,-11.0,4,30.02,10.0,ENE,15.0,24.2,N/A,,Clear,70,2013-05-02 21:53:00
3:53 PM,93.0,-13.0,4,30.00,10.0,ENE,12.7,25.3,N/A,,Clear,60,2013-05-02 22:53:00
4:53 PM,91.9,-9.9,4,29.98,10.0,ENE,10.4,23.0,N/A,,Clear,70,2013-05-02 23:53:00
5:53 PM,91.0,-9.0,4,29.95,10.0,NE,11.5,19.6,N/A,,Clear,40,2013-05-03 00:53:00
6:53 PM,88.0,-8.0,4,29.94,10.0,NE,12.7,-,N/A,,Clear,40,2013-05-03 01:53:00
7:53 PM,82.9,-2.9,4,29.96,10.0,NNE,5.8,17.3,N/A,,Clear,20,2013-05-03 02:53:00
8:53 PM,81.0,-7.1,4,29.97,10.0,ENE,3.5,-,N/A,,Clear,60,2013-05-03 03:53:00
9:53 PM,77.0,-0.9,5,29.98,10.0,Calm,Calm,-,N/A,,Clear,0,2013-05-03 04:53:00
10:53 PM,73.9,24.1,16,29.99,10.0,Variable,3.5,-,N/A,,Clear,0,2013-05-03 05:53:00
11:53 PM,70.0,26.1,19,29.99,10.0,Calm,Calm,-,N/A,,Clear,0,2013-05-03 06:53:00